Time,TemperatureF,DewpointF,PressureIn,WindDirection,WindDirectionDegrees,WindSpeedMPH,WindSpeedGustMPH,Humidity,HourlyPrecipIn,Conditions,Clouds,dailyrainin,SoftwareType,DateUTC
2013-02-03 00:02:00,2.0,-2.0,29.97,SSW,200,0.0,0.0,84,0.00,,,0.00,,2013-02-03 06:02:00,
2013-02-03 00:11:00,2.0,-2.0,29.97,SSW,200,0.0,0.0,84,0.00,,,0.00,,2013-02-03 06:11:00,
2013-02-03 00:21:00,2.0,-2.0,29.96,SSW,199,0.0,0.0,84,0.00,,,0.00,,2013-02-03 06:21:00,
2013-02-03 00:32:00,1.0,-3.0,29.95,SSW,200,0.0,0.0,83,0.00,,,0.00,,2013-02-03 06:32:00,
2013-02-03 00:41:00,1.0,-3.0,29.95,SSW,200,0.0,0.0,83,0.00,,,0.00,,2013-02-03 06:41:00,
2013-02-03 00:52:00,1.0,-3.0,29.95,SSW,200,0.0,0.0,84,0.00,,,0.00,,2013-02-03 06:52:00,
2013-02-03 01:01:00,1.0,-3.0,29.94,SSW,199,0.0,0.0,84,0.00,,,0.00,,2013-02-03 07:01:00,
2013-02-03 01:11:00,1.0,-3.0,29.94,SSW,199,0.0,0.0,84,0.00,,,0.00,,2013-02-03 07:11:00,
2013-02-03 01:21:00,0.0,-4.0,29.94,SSW,200,0.0,0.0,84,0.00,,,0.00,,2013-02-03 07:21:00,
2013-02-03 01:31:00,0.0,-4.0,29.93,SSW,200,0.0,0.0,84,0.00,,,0.00,,2013-02-03 07:31:00,
2013-02-03 01:41:00,0.0,-4.0,29.93,SSW,200,0.0,0.0,84,0.00,,,0.00,,2013-02-03 07:41:00,
2013-02-03 01:52:00,0.0,-3.0,29.93,SSW,199,0.0,0.0,85,0.00,,,0.00,,2013-02-03 07:52:00,
2013-02-03 02:01:00,0.0,-3.0,29.93,SSW,199,0.0,0.0,85,0.00,,,0.00,,2013-02-03 08:01:00,
2013-02-03 02:11:00,0.0,-3.0,29.93,SSW,199,0.0,0.0,85,0.00,,,0.00,,2013-02-03 08:11:00,
2013-02-03 02:22:00,1.0,-2.0,29.92,SSW,199,0.0,0.0,85,0.00,,,0.00,,2013-02-03 08:22:00,
2013-02-03 02:32:00,1.0,-2.0,29.92,SSW,200,0.0,0.0,85,0.00,,,0.00,,2013-02-03 08:32:00,
2013-02-03 02:41:00,1.0,-2.0,29.92,SSW,200,0.0,0.0,85,0.00,,,0.00,,2013-02-03 08:41:00,
2013-02-03 02:52:00,1.0,-2.0,29.91,SSW,200,0.0,0.0,85,0.00,,,0.00,,2013-02-03 08:52:00,
2013-02-03 03:02:00,1.0,-2.0,29.91,SSW,200,0.0,0.0,85,0.00,,,0.00,,2013-02-03 09:02:00,
2013-02-03 03:11:00,1.0,-2.0,29.91,SSW,200,0.0,0.0,85,0.00,,,0.00,,2013-02-03 09:11:00,
2013-02-03 03:21:00,1.0,-2.0,29.91,SSW,199,0.0,0.0,86,0.00,,,0.00,,2013-02-03 09:21:00,
2013-02-03 03:31:00,1.0,-2.0,29.90,SSW,199,0.0,2.0,86,0.00,,,0.00,,2013-02-03 09:31:00,
2013-02-03 03:41:00,1.0,-2.0,29.90,SSW,199,0.0,2.0,86,0.00,,,0.00,,2013-02-03 09:41:00,
2013-02-03 03:52:00,1.0,-2.0,29.90,SSW,200,0.0,0.0,86,0.00,,,0.00,,2013-02-03 09:52:00,
2013-02-03 04:01:00,1.0,-2.0,29.89,SSW,200,0.0,0.0,86,0.00,,,0.00,,2013-02-03 10:01:00,
2013-02-03 04:11:00,1.0,-2.0,29.89,SSW,200,0.0,0.0,86,0.00,,,0.00,,2013-02-03 10:11:00,
2013-02-03 04:21:00,2.0,-1.0,29.88,SSW,200,0.0,0.0,86,0.00,,,0.00,,2013-02-03 10:21:00,
2013-02-03 04:31:00,2.0,-1.0,29.89,SSW,200,0.0,0.0,86,0.00,,,0.00,,2013-02-03 10:31:00,
2013-02-03 04:42:00,2.0,-1.0,29.89,SSW,200,0.0,0.0,86,0.00,,,0.00,,2013-02-03 10:42:00,
2013-02-03 04:52:00,2.0,-1.0,29.90,SSW,200,0.0,0.0,86,0.00,,,0.00,,2013-02-03 10:52:00,
2013-02-03 05:02:00,3.0,0.0,29.89,SSW,200,0.0,0.0,87,0.00,,,0.00,,2013-02-03 11:02:00,
2013-02-03 05:11:00,3.0,0.0,29.89,SSW,200,0.0,0.0,87,0.00,,,0.00,,2013-02-03 11:11:00,
2013-02-03 05:22:00,3.0,0.0,29.89,SSW,200,0.0,0.0,87,0.00,,,0.00,,2013-02-03 11:22:00,
2013-02-03 05:32:00,4.0,1.0,29.89,SSW,199,0.0,0.0,87,0.00,,,0.00,,2013-02-03 11:32:00,
2013-02-03 05:41:00,4.0,1.0,29.89,SSW,199,0.0,0.0,87,0.00,,,0.00,,2013-02-03 11:41:00,
2013-02-03 05:52:00,4.0,1.0,29.89,SSW,199,0.0,0.0,87,0.00,,,0.00,,2013-02-03 11:52:00,
2013-02-03 06:02:00,5.0,2.0,29.89,SSW,200,0.0,0.0,87,0.00,,,0.00,,2013-02-03 12:02:00,
2013-02-03 06:11:00,5.0,2.0,29.89,SSW,200,0.0,0.0,87,0.00,,,0.00,,2013-02-03 12:11:00,
2013-02-03 06:22:00,5.0,2.0,29.89,SSW,200,0.0,0.0,87,0.00,,,0.00,,2013-02-03 12:22:00,
2013-02-03 06:32:00,5.0,2.0,29.90,SSW,199,0.0,0.0,87,0.00,,,0.00,,2013-02-03 12:32:00,
2013-02-03 06:42:00,5.0,2.0,29.90,SSW,199,0.0,0.0,87,0.00,,,0.00,,2013-02-03 12:42:00,
2013-02-03 06:53:00,6.0,3.0,29.90,SSW,200,0.0,0.0,87,0.00,,,0.00,,2013-02-03 12:53:00,
2013-02-03 07:03:00,7.0,4.0,29.90,WSW,246,0.0,4.0,88,0.00,,,0.00,,2013-02-03 13:03:00,
2013-02-03 07:11:00,7.0,4.0,29.90,WSW,246,0.0,4.0,88,0.00,,,0.00,,2013-02-03 13:11:00,
2013-02-03 07:21:00,7.0,4.0,29.90,WSW,246,0.0,5.0,88,0.00,,,0.00,,2013-02-03 13:21:00,
2013-02-03 07:32:00,8.0,5.0,29.90,West,267,0.0,5.0,88,0.00,,,0.00,,2013-02-03 13:32:00,
2013-02-03 07:42:00,8.0,5.0,29.90,West,267,0.0,5.0,88,0.00,,,0.00,,2013-02-03 13:42:00,
2013-02-03 07:52:00,8.0,5.0,29.91,West,267,2.0,5.0,87,0.00,,,0.00,,2013-02-03 13:52:00,
2013-02-03 08:02:00,8.0,5.0,29.91,WSW,238,2.0,7.0,88,0.00,,,0.00,,2013-02-03 14:02:00,
2013-02-03 08:11:00,8.0,5.0,29.91,WSW,238,2.0,7.0,88,0.00,,,0.00,,2013-02-03 14:11:00,
2013-02-03 08:21:00,9.0,6.0,29.91,SW,230,2.0,8.0,88,0.00,,,0.00,,2013-02-03 14:21:00,
2013-02-03 08:32:00,10.0,7.0,29.91,West,279,4.0,7.0,87,0.00,,,0.00,,2013-02-03 14:32:00,
2013-02-03 08:42:00,10.0,7.0,29.91,West,279,4.0,7.0,87,0.00,,,0.00,,2013-02-03 14:42:00,
2013-02-03 08:52:00,10.0,7.0,29.91,SW,234,2.0,10.0,87,0.00,,,0.00,,2013-02-03 14:52:00,
2013-02-03 09:03:00,10.0,7.0,29.92,WSW,254,4.0,10.0,87,0.00,,,0.00,,2013-02-03 15:03:00,
2013-02-03 09:11:00,10.0,7.0,29.92,WSW,254,4.0,10.0,87,0.00,,,0.00,,2013-02-03 15:11:00,
2013-02-03 09:22:00,11.0,8.0,29.92,West,261,4.0,9.0,86,0.00,,,0.00,,2013-02-03 15:22:00,
2013-02-03 09:32:00,11.0,7.0,29.92,West,267,4.0,14.0,85,0.00,,,0.00,,2013-02-03 15:32:00,
2013-02-03 09:42:00,11.0,7.0,29.92,West,267,4.0,14.0,85,0.00,,,0.00,,2013-02-03 15:42:00,
2013-02-03 09:52:00,11.0,7.0,29.92,NW,317,4.0,12.0,84,0.00,,,0.00,,2013-02-03 15:52:00,
2013-02-03 10:02:00,11.0,7.0,29.93,NW,311,5.0,13.0,82,0.00,,,0.00,,2013-02-03 16:02:00,
2013-02-03 10:11:00,11.0,7.0,29.93,NW,311,5.0,13.0,82,0.00,,,0.00,,2013-02-03 16:11:00,
2013-02-03 10:22:00,12.0,8.0,29.93,NW,319,10.0,14.0,82,0.00,,,0.00,,2013-02-03 16:22:00,
2013-02-03 10:32:00,12.0,7.0,29.94,WNW,286,8.0,13.0,80,0.00,,,0.00,,2013-02-03 16:32:00,
2013-02-03 10:41:00,12.0,7.0,29.94,WNW,286,8.0,13.0,80,0.00,,,0.00,,2013-02-03 16:41:00,
2013-02-03 10:52:00,13.0,8.0,29.93,NW,310,5.0,16.0,79,0.00,,,0.00,,2013-02-03 16:52:00,
2013-02-03 11:02:00,13.0,7.0,29.94,WSW,246,7.0,13.0,78,0.00,,,0.00,,2013-02-03 17:02:00,
2013-02-03 11:11:00,13.0,7.0,29.94,WSW,246,7.0,13.0,78,0.00,,,0.00,,2013-02-03 17:11:00,
2013-02-03 11:21:00,13.0,7.0,29.95,WNW,287,5.0,12.0,78,0.00,,,0.00,,2013-02-03 17:21:00,
2013-02-03 11:32:00,13.0,7.0,29.95,NW,320,3.0,12.0,78,0.00,,,0.00,,2013-02-03 17:32:00,
2013-02-03 11:42:00,13.0,7.0,29.95,NW,320,3.0,12.0,78,0.00,,,0.00,,2013-02-03 17:42:00,
2013-02-03 11:52:00,13.0,7.0,29.95,NW,304,5.0,12.0,78,0.00,,,0.00,,2013-02-03 17:52:00,
2013-02-03 12:02:00,13.0,7.0,29.94,SW,229,4.0,14.0,77,0.00,,,0.00,,2013-02-03 18:02:00,
2013-02-03 12:12:00,13.0,7.0,29.94,SW,229,4.0,14.0,77,0.00,,,0.00,,2013-02-03 18:12:00,
2013-02-03 12:23:00,14.0,8.0,29.95,WSW,246,6.0,13.0,76,0.00,,,0.00,,2013-02-03 18:23:00,
2013-02-03 12:32:00,14.0,8.0,29.94,WSW,249,6.0,15.0,76,0.00,,,0.00,,2013-02-03 18:32:00,
2013-02-03 12:42:00,14.0,8.0,29.94,WSW,249,6.0,15.0,76,0.00,,,0.00,,2013-02-03 18:42:00,
2013-02-03 12:52:00,15.0,9.0,29.94,West,265,5.0,11.0,76,0.00,,,0.00,,2013-02-03 18:52:00,
2013-02-03 13:02:00,15.0,9.0,29.94,SSW,207,7.0,11.0,75,0.00,,,0.00,,2013-02-03 19:02:00,
2013-02-03 13:11:00,15.0,9.0,29.94,SSW,207,7.0,11.0,75,0.00,,,0.00,,2013-02-03 19:11:00,
2013-02-03 13:22:00,15.0,8.0,29.94,WNW,286,5.0,11.0,74,0.00,,,0.00,,2013-02-03 19:22:00,
2013-02-03 13:32:00,16.0,9.0,29.94,WSW,248,4.0,9.0,75,0.00,,,0.00,,2013-02-03 19:32:00,
2013-02-03 13:41:00,16.0,9.0,29.94,WSW,248,4.0,9.0,75,0.00,,,0.00,,2013-02-03 19:41:00,
2013-02-03 13:52:00,16.0,9.0,29.93,NW,322,3.0,11.0,74,0.00,,,0.00,,2013-02-03 19:52:00,
2013-02-03 14:01:00,17.0,10.0,29.93,WNW,296,4.0,12.0,73,0.00,,,0.00,,2013-02-03 20:01:00,
2013-02-03 14:12:00,17.0,10.0,29.93,WNW,296,4.0,12.0,73,0.00,,,0.00,,2013-02-03 20:12:00,
2013-02-03 14:21:00,17.0,10.0,29.94,WSW,252,6.0,10.0,72,0.00,,,0.00,,2013-02-03 20:21:00,
2013-02-03 14:32:00,17.0,10.0,29.95,West,271,6.0,11.0,72,0.00,,,0.00,,2013-02-03 20:32:00,
2013-02-03 14:42:00,17.0,10.0,29.95,West,271,6.0,11.0,72,0.00,,,0.00,,2013-02-03 20:42:00,
2013-02-03 14:52:00,17.0,10.0,29.94,WSW,250,3.0,11.0,72,0.00,,,0.00,,2013-02-03 20:52:00,
2013-02-03 15:03:00,18.0,11.0,29.95,WNW,300,5.0,9.0,72,0.00,,,0.00,,2013-02-03 21:03:00,
2013-02-03 15:11:00,18.0,11.0,29.95,WNW,300,5.0,9.0,72,0.00,,,0.00,,2013-02-03 21:11:00,
2013-02-03 15:21:00,18.0,10.0,29.94,WNW,290,4.0,10.0,71,0.00,,,0.00,,2013-02-03 21:21:00,
2013-02-03 15:32:00,17.0,9.0,29.94,SW,235,2.0,10.0,71,0.00,,,0.00,,2013-02-03 21:32:00,
2013-02-03 15:42:00,17.0,9.0,29.94,SW,235,2.0,10.0,71,0.00,,,0.00,,2013-02-03 21:42:00,
2013-02-03 15:52:00,17.0,10.0,29.94,West,268,3.0,7.0,72,0.00,,,0.00,,2013-02-03 21:52:00,
2013-02-03 16:01:00,17.0,9.0,29.95,WNW,286,4.0,7.0,71,0.00,,,0.00,,2013-02-03 22:01:00,
2013-02-03 16:11:00,17.0,9.0,29.95,WNW,286,4.0,7.0,71,0.00,,,0.00,,2013-02-03 22:11:00,
2013-02-03 16:21:00,17.0,10.0,29.94,WSW,254,1.0,9.0,72,0.00,,,0.00,,2013-02-03 22:21:00,
2013-02-03 16:32:00,17.0,10.0,29.94,WNW,292,3.0,5.0,72,0.00,,,0.00,,2013-02-03 22:32:00,
2013-02-03 16:41:00,17.0,10.0,29.94,WNW,292,3.0,5.0,72,0.00,,,0.00,,2013-02-03 22:41:00,
2013-02-03 16:52:00,17.0,10.0,29.94,WNW,288,0.0,5.0,72,0.00,,,0.00,,2013-02-03 22:52:00,
2013-02-03 17:01:00,15.0,8.0,29.94,WSW,256,0.0,4.0,72,0.00,,,0.00,,2013-02-03 23:01:00,
2013-02-03 17:12:00,15.0,8.0,29.94,WSW,256,0.0,4.0,72,0.00,,,0.00,,2013-02-03 23:12:00,
2013-02-03 17:22:00,15.0,8.0,29.94,West,260,0.0,4.0,73,0.00,,,0.00,,2013-02-03 23:22:00,
2013-02-03 17:32:00,14.0,7.0,29.94,West,259,0.0,0.0,74,0.00,,,0.00,,2013-02-03 23:32:00,
2013-02-03 17:41:00,14.0,7.0,29.94,West,259,0.0,0.0,74,0.00,,,0.00,,2013-02-03 23:41:00,
2013-02-03 17:52:00,13.0,7.0,29.95,West,259,0.0,0.0,75,0.00,,,0.00,,2013-02-03 23:52:00,
2013-02-03 18:01:00,13.0,7.0,29.95,West,259,0.0,0.0,76,0.00,,,0.00,,2013-02-04 00:01:00,
2013-02-03 18:11:00,13.0,7.0,29.95,West,259,0.0,0.0,76,0.00,,,0.00,,2013-02-04 00:11:00,
2013-02-03 18:22:00,12.0,6.0,29.95,West,259,0.0,0.0,77,0.00,,,0.00,,2013-02-04 00:22:00,
2013-02-03 18:31:00,12.0,6.0,29.96,West,259,0.0,1.0,78,0.00,,,0.00,,2013-02-04 00:31:00,
2013-02-03 18:41:00,12.0,6.0,29.96,West,259,0.0,1.0,78,0.00,,,0.00,,2013-02-04 00:41:00,
2013-02-03 18:52:00,12.0,7.0,29.96,West,259,0.0,0.0,79,0.00,,,0.00,,2013-02-04 00:52:00,
2013-02-03 19:01:00,13.0,8.0,29.96,West,259,0.0,0.0,79,0.00,,,0.00,,2013-02-04 01:01:00,
2013-02-03 19:11:00,13.0,8.0,29.96,West,259,0.0,0.0,79,0.00,,,0.00,,2013-02-04 01:11:00,
2013-02-03 19:21:00,13.0,8.0,29.96,West,259,0.0,2.0,79,0.00,,,0.00,,2013-02-04 01:21:00,
2013-02-03 19:31:00,13.0,7.0,29.96,SW,233,0.0,1.0,77,0.00,,,0.00,,2013-02-04 01:31:00,
2013-02-03 19:41:00,13.0,7.0,29.96,SW,233,0.0,1.0,77,0.00,,,0.00,,2013-02-04 01:41:00,
2013-02-03 19:52:00,14.0,8.0,29.96,West,269,0.0,3.0,78,0.00,,,0.00,,2013-02-04 01:52:00,
2013-02-03 20:02:00,14.0,8.0,29.96,West,268,0.0,2.0,77,0.00,,,0.00,,2013-02-04 02:02:00,
2013-02-03 20:11:00,14.0,8.0,29.96,West,268,0.0,2.0,77,0.00,,,0.00,,2013-02-04 02:11:00,
2013-02-03 20:21:00,14.0,8.0,29.96,West,259,0.0,1.0,76,0.00,,,0.00,,2013-02-04 02:21:00,
2013-02-03 20:31:00,14.0,8.0,29.96,WSW,246,0.0,3.0,76,0.00,,,0.00,,2013-02-04 02:31:00,
2013-02-03 20:41:00,14.0,8.0,29.96,WSW,246,0.0,3.0,76,0.00,,,0.00,,2013-02-04 02:41:00,
2013-02-03 20:52:00,14.0,8.0,29.96,WSW,247,1.0,3.0,76,0.00,,,0.00,,2013-02-04 02:52:00,
2013-02-03 21:02:00,14.0,8.0,29.97,WSW,249,0.0,4.0,76,0.00,,,0.00,,2013-02-04 03:02:00,
2013-02-03 21:11:00,14.0,8.0,29.97,WSW,246,0.0,0.0,76,0.00,,,0.00,,2013-02-04 03:11:00,
2013-02-03 21:21:00,14.0,8.0,29.97,WSW,246,0.0,0.0,76,0.00,,,0.00,,2013-02-04 03:21:00,
2013-02-03 21:32:00,14.0,8.0,29.97,WSW,257,0.0,5.0,76,0.00,,,0.00,,2013-02-04 03:32:00,
2013-02-03 21:41:00,14.0,8.0,29.97,WSW,257,0.0,5.0,76,0.00,,,0.00,,2013-02-04 03:41:00,
2013-02-03 21:52:00,14.0,8.0,29.97,WSW,257,0.0,2.0,76,0.00,,,0.00,,2013-02-04 03:52:00,
2013-02-03 22:01:00,14.0,8.0,29.98,WSW,254,0.0,2.0,76,0.00,,,0.00,,2013-02-04 04:01:00,
2013-02-03 22:11:00,14.0,8.0,29.98,WSW,254,0.0,2.0,76,0.00,,,0.00,,2013-02-04 04:11:00,
2013-02-03 22:21:00,14.0,8.0,29.98,WSW,242,0.0,5.0,76,0.00,,,0.00,,2013-02-04 04:21:00,
2013-02-03 22:32:00,14.0,8.0,29.98,WSW,240,0.0,1.0,76,0.00,,,0.00,,2013-02-04 04:32:00,
2013-02-03 22:41:00,14.0,8.0,29.98,WSW,240,0.0,1.0,76,0.00,,,0.00,,2013-02-04 04:41:00,
2013-02-03 22:52:00,14.0,8.0,29.98,West,265,1.0,5.0,77,0.00,,,0.00,,2013-02-04 04:52:00,
2013-02-03 23:03:00,14.0,8.0,29.98,West,272,0.0,5.0,78,0.00,,,0.00,,2013-02-04 05:03:00,
2013-02-03 23:11:00,14.0,8.0,29.98,West,272,0.0,5.0,78,0.00,,,0.00,,2013-02-04 05:11:00,
2013-02-03 23:22:00,14.0,9.0,29.97,SW,230,0.0,4.0,80,0.00,,,0.00,,2013-02-04 05:22:00,
2013-02-03 23:33:00,13.0,9.0,29.97,WSW,247,0.0,2.0,82,0.00,,,0.00,,2013-02-04 05:33:00,
2013-02-03 23:42:00,13.0,9.0,29.97,WSW,247,0.0,2.0,82,0.00,,,0.00,,2013-02-04 05:42:00,
2013-02-03 23:52:00,13.0,9.0,29.97,WSW,245,0.0,2.0,83,0.00,,,0.00,,2013-02-04 05:52:00,